Location: Pcim
(49.7500°N, 19.9670°E)
Time: 01:09:43
(UTC+02:00)

Oscar 11 - Visible Passes

Search period start: 19 April 2024 00:00
Search period end: 29 April 2024 00:00
Orbit: 605 x 614 km, 97.7° (Epoch: 18 April)

Date Brightness Start Highest point End Pass type
(mag) Time Alt. Az. Time Alt. Az. Time Alt. Az.
19 Apr 8.9 03:56:08 10° NNE 03:59:55 29° E 04:03:40 10° SSE visible
20 Apr 8.4 04:09:53 10° NNE 04:13:57 39° E 04:17:58 10° SSE visible
21 Apr 7.8 04:23:41 10° NNE 04:27:56 54° E 04:32:08 10° S visible
22 Apr 7.3 04:37:33 10° NNE 04:41:53 75° ESE 04:46:10 10° S visible
23 Apr 9.9 03:17:27 10° ENE 03:19:18 12° E 03:21:09 10° ESE visible
23 Apr 7.0 04:51:28 10° NNE 04:55:48 80° WNW 05:00:04 10° SSW visible
24 Apr 9.7 03:30:33 10° NE 03:33:22 17° E 03:36:11 10° SE visible
25 Apr 9.3 03:43:59 10° NE 03:47:24 23° E 03:50:48 10° SE visible
26 Apr 8.8 03:57:35 10° NNE 04:01:24 30° E 04:05:11 10° SSE visible
27 Apr 8.3 04:11:17 10° NNE 04:15:22 41° E 04:19:24 10° S visible
28 Apr 7.7 04:25:02 10° NNE 04:29:17 56° E 04:33:29 10° S visible
